Weather in Glyaden'

Russia / Krasnoyarsk Krai     55°46′35″N   90°08′28″E
temp.,
°C
wind,
m/s
gust,
m/s
humid.,
%
clouds,
%
prec.,
mm/h
press.,
hPa
HPBL,
m
15 may, sat
sat1501:00+8w3749100 0.0 1020211
04:00+6wsw395490 0.0 1020223
07:00+9wsw61247100 0.0 1019611
10:00+13wsw9164098 0.0 10181214
13:00+14w91648100 0.1 10171115
16:00+17w101641100 0.1 10161236
19:00+16wsw81547100 0.1 10151076
22:00+16wsw91850100 0.2 1013746
16 may, sun
sun1601:00+14w81472100 2.9 10141003
04:00+12n2392100 0.2 1015198
07:00+10ene3490100 0.3 1015260
10:00+12sse2389100 0.5 1013239
13:00+17wsw71260100 0.7 10091119
16:00+11n4693100 1.2 1010280
19:00+8ne478795 1.3 1012408
22:00+7ne3487100 0.0 1014400
17 may, mon
mon1701:00+6nne3387100 0.0 1014294
04:00+4ne3593100 0.0 1014282
07:00+5nne347862 0.0 1016491
10:00+9nne3450100 0.0 1016866
13:00+11n3344100 0.0 10161153
16:00+13nnw3340100 0.0 10151451
19:00+13n3344100 0.0 10151216
22:00+10ese235568 0.0 101568
18 may, tue
tue1801:00+11ssw3658100 0.0 1013215
04:00+10ssw51164100 0.1 1010383
07:00+11ssw3773100 0.5 1008327
10:00+12wsw4984100 0.7 1006540
13:00+12wnw4991100 2.8 1005835
16:00+11n4691100 0.5 1006482
19:00+9n4588100 0.6 1008545
22:00+8ne3688100 0.0 1009413
19 may, wed
wed1901:00+8ene2390100 0.1 1008241
04:00+7nne3592100 0.1 1007240
07:00+7nne3683100 0.5 1007376
10:00+9n5647100 0.0 1007875
13:00+10n6641100 0.0 10081511
16:00+11n6734100 0.0 10092349
19:00+10n6636100 0.0 10102295
22:00+6n61241100 0.0 1012495